Weather in Boca Raton

United States     26°21′41″N   80°04′56″W
temp.,
°C
wind,
m/s
gust,
m/s
humid.,
%
clouds,
%
prec.,
mm/h
press.,
hPa
HPBL,
m
26 may, thu
thu2623:00+27ese777256 0.0 1019877
02:00+26ese676910 0.0 1019977
05:00+26ese676865 0.0 10181132
08:00+27ese78666 0.1 10191154
11:00+27ese776321 0.0 10201291
14:00+28ese67637 0.0 10191171
17:00+27ese5670100 0.1 1018938
20:00+27ese667217 0.2 1017931
27 may, fri
fri2723:00+27ese677344 0.1 1018907
02:00+27se677513 0.1 1016871
05:00+26se667368 0.1 1016903
08:00+27se556912 0.1 10171006
11:00+28se556944 0.0 10171023
14:00+28sse556655 0.1 10161029
17:00+28sse55675 0.0 1015820
20:00+27sse56712 0.1 1015667
28 may, sat
sat2823:00+27sse66700 0.0 1015745
02:00+27sse44690 0.0 1014774
05:00+27s45711 0.0 1014864
08:00+27s34725 0.3 1014761
11:00+28sse44663 0.7 1015993
14:00+28se76655 0.7 1014723
17:00+28sse666728 0.1 1013795
20:00+27sse67713 1.6 1013438
29 may, sun
sun2923:00+27sse45700 2.4 1014313
02:00+27s44690 3.1 1014357
05:00+27sse34720 0.1 1014521
08:00+27sse33733 0.1 1015675
11:00+28ese33650 0.0 1016705
14:00+28e546510 0.0 1015822
17:00+28e656799 0.0 1014820
20:00+27e787237 0.0 1014753
30 may, mon
mon3023:00+27ese677392 0.0 1017952
02:00+27ese5574100 0.0 1016819
05:00+27ese4575100 0.1 1016717
08:00+27e567594 0.6 1017823
11:00+27e6672100 0.1 1018958
14:00+28e6670100 0.5 10181006
17:00+28e776953 1.0 10171051
20:00+27e89706 1.1 10171069